MAUNA LOA HI US current weather conditions

sailwx.info

Wind from 355 at 4 knots gusting 13

Air temperature 11.1° C
Dewpoint 8.3° C

Last reported at 2015-Mar-30 15:34 UTC.
Time now 2015-Mar-30 16:18 UTC

Location: N 19°28' W 155°22'.
View on Google Maps.

See reports from other nearby stations

  
Tides and Currents Weather Stations Pressure Air Temp Water Temp Dewpoint Dewpoint Depression Visibility Wind Speed Wind Dir Waves Ship Positions
date/time (UTC)wind fromknots sea level pressurealtimeterstation pressurevisibilityair tempwater tempwave heightnotes
2015-Mar-30 15:34 355 4 gusting 13 11.1
2015-Mar-30 14:34 008 6 gusting 13 11.7
2015-Mar-30 13:34 337 5 gusting 13 11.7
2015-Mar-30 12:34 322 6 gusting 15 11.1
2015-Mar-30 11:34 353 6 gusting 10 11.7
2015-Mar-30 10:34 336 6 gusting 13 11.7
2015-Mar-30 09:34 348 5 gusting 16 11.1
2015-Mar-30 08:34 007 6 gusting 13 11.1
2015-Mar-30 07:34 340 6 gusting 12 11.7
2015-Mar-30 06:34 332 5 gusting 13 12.2
2015-Mar-30 05:34 352 6 gusting 13 12.2
2015-Mar-30 04:34 358 7 gusting 17 12.2
2015-Mar-30 03:34 033 8 gusting 15 14.4
2015-Mar-30 02:34 032 9 gusting 15 17.8
2015-Mar-30 01:34 041 6 gusting 13 19.4
2015-Mar-30 00:34 043 6 gusting 13 21.1
2015-Mar-29 23:34 041 6 gusting 14 21.7
2015-Mar-29 22:34 043 6 gusting 14 21.1
2015-Mar-29 21:34 036 6 gusting 14 20.6
2015-Mar-29 20:34 034 6 gusting 13 20.0
2015-Mar-29 19:34 052 5 gusting 11 19.4
2015-Mar-29 18:34 032 4 gusting 11 18.3
2015-Mar-29 17:34 015 4 gusting 10 13.9
2015-Mar-29 16:34 010 6 gusting 10 10.6
2015-Mar-29 15:34 328 5 gusting 10 10.0
2015-Mar-29 14:34 343 5 gusting 8 8.9
2015-Mar-29 13:34 338 4 gusting 7 7.8
2015-Mar-29 12:34 008 4 gusting 8 6.7
2015-Mar-29 11:34 340 4 gusting 7 8.3
2015-Mar-29 10:34 344 3 gusting 7 7.8
2015-Mar-29 09:34 327 5 gusting 6 8.3
2015-Mar-29 08:34 328 3 gusting 5 7.2
2015-Mar-29 07:34 323 4 gusting 5 8.3
2015-Mar-29 06:34 325 3 gusting 5 8.3
2015-Mar-29 05:34 353 4 gusting 6 10.0
2015-Mar-29 04:34 030 3 gusting 6 12.8
2015-Mar-29 03:34 069 2 gusting 11 15.6
2015-Mar-29 02:34 072 3 gusting 11 18.9
2015-Mar-29 01:34 042 4 gusting 11 20.6
2015-Mar-29 00:34 070 6 gusting 13 20.0
2015-Mar-28 23:34 047 6 gusting 12 19.4
2015-Mar-28 22:34 079 4 gusting 12 20.0
2015-Mar-28 21:34 062 6 gusting 13 19.4
2015-Mar-28 20:34 032 6 gusting 14 20.6
2015-Mar-28 19:34 036 6 gusting 16 17.2
2015-Mar-28 18:34 042 4 gusting 10 18.3
2015-Mar-28 17:34 341 3 gusting 9 14.4
2015-Mar-28 16:34 006 6 gusting 10 10.6